Starlink 6326

operational
NORAD ID: 56787 Int'l Des: 2023-078 Owner: SPXS Country: US Constellation: starlink
LEOCIRCULAR

关于 Starlink 6326

正在加载描述...

实时位置

正在加载3D地球...

即将过境

高度历史

Altitude vs Time

uPlot chart will show altitude changes over time

两行轨道根数

1 56787U 23078W 25260.09873949 -.00000379 00000-0 -23944-4 0 9994
2 56787 70.0005 42.0492 0003122 269.4322 90.6480 14.98329503127173
Epoch: Sep 17, 2025 • Age: 24 hours

当前状态

高度 594.6 km
速度 7.56 km/s
星下点 -66.62°S, 45.44°W
发射日期 May 31, 2023
运行时间 2.2 years
类型 internet

技术详情

分类 Payload
质量 305.00 kg
干质量 290.00 kg
总质量 305.00 kg
长度 0.20 m
直径 2.80 m
跨度 9.00 m
形状 Box + pan
制造商 SPXS
平台类型 Starlink
阶段状态 In Orbit
所有者/国家 SPXS/US

大型星座

Loading constellations...